Time,TemperatureF,DewpointF,PressureIn,WindDirection,WindDirectionDegrees,WindSpeedMPH,WindSpeedGustMPH,Humidity,HourlyPrecipIn,Conditions,Clouds,dailyrainin,SolarRadiationWatts/m^2,SoftwareType,DateUTC
2013-06-02 00:01:00,80.0,28.0,-100.00,South,181,5.0,13.0,15,0.00,,,0.00,0.000000,,2013-06-02 07:01:00,
2013-06-02 00:11:00,80.0,28.0,-100.00,South,181,5.0,13.0,15,0.00,,,0.00,0.000000,,2013-06-02 07:11:00,
2013-06-02 00:32:00,71.0,38.0,-100.00,East,92,1.0,8.0,30,0.00,,,-99.99,0.000000,,2013-06-02 07:32:00,
2013-06-02 00:42:00,71.0,38.0,-100.00,East,92,1.0,8.0,30,0.00,,,-99.99,0.000000,,2013-06-02 07:42:00,
2013-06-02 00:52:00,71.0,38.0,-100.00,East,92,1.0,8.0,30,0.00,,,-99.99,0.000000,,2013-06-02 07:52:00,
2013-06-02 01:01:00,71.0,38.0,-100.00,East,92,1.0,8.0,30,0.00,,,-99.99,0.000000,,2013-06-02 08:01:00,
2013-06-02 01:11:00,71.0,38.0,-100.00,East,92,1.0,8.0,30,0.00,,,-99.99,0.000000,,2013-06-02 08:11:00,
2013-06-02 01:32:00,69.0,38.0,-100.00,SSW,194,2.0,4.0,32,0.00,,,0.00,0.000000,,2013-06-02 08:32:00,
2013-06-02 01:42:00,69.0,38.0,-100.00,SSW,194,2.0,4.0,32,0.00,,,0.00,0.000000,,2013-06-02 08:42:00,
2013-06-02 01:52:00,69.0,38.0,-100.00,SSW,194,2.0,4.0,32,0.00,,,0.00,0.000000,,2013-06-02 08:52:00,
2013-06-02 02:01:00,69.0,38.0,-100.00,SSW,194,2.0,4.0,32,0.00,,,0.00,0.000000,,2013-06-02 09:01:00,
2013-06-02 02:11:00,69.0,38.0,-100.00,SSW,194,2.0,4.0,32,0.00,,,0.00,0.000000,,2013-06-02 09:11:00,
2013-06-02 02:33:00,68.0,36.0,-100.00,SSE,154,5.0,6.0,31,0.00,,,0.00,0.000000,,2013-06-02 09:33:00,
2013-06-02 02:43:00,68.0,36.0,-100.00,SSE,154,5.0,6.0,31,0.00,,,0.00,0.000000,,2013-06-02 09:43:00,
2013-06-02 02:53:00,68.0,36.0,-100.00,SSE,154,5.0,6.0,31,0.00,,,0.00,0.000000,,2013-06-02 09:53:00,
2013-06-02 03:02:00,68.0,36.0,-100.00,SSE,154,5.0,6.0,31,0.00,,,0.00,0.000000,,2013-06-02 10:02:00,
2013-06-02 03:12:00,68.0,36.0,-100.00,SSE,154,5.0,6.0,31,0.00,,,0.00,0.000000,,2013-06-02 10:12:00,
2013-06-02 03:33:00,67.0,35.0,-100.00,SSE,158,3.0,6.0,31,0.00,,,0.00,0.000000,,2013-06-02 10:33:00,
2013-06-02 03:42:00,67.0,35.0,-100.00,SSE,158,3.0,6.0,31,0.00,,,0.00,0.000000,,2013-06-02 10:42:00,
2013-06-02 03:52:00,67.0,35.0,-100.00,SSE,158,3.0,6.0,31,0.00,,,0.00,0.000000,,2013-06-02 10:52:00,
2013-06-02 04:02:00,67.0,35.0,-100.00,SSE,158,3.0,6.0,31,0.00,,,0.00,0.000000,,2013-06-02 11:02:00,
2013-06-02 04:11:00,67.0,35.0,-100.00,SSE,158,3.0,6.0,31,0.00,,,0.00,0.000000,,2013-06-02 11:11:00,
2013-06-02 04:32:00,67.0,37.0,-100.00,SSE,160,5.0,8.0,33,0.00,,,0.00,0.000000,,2013-06-02 11:32:00,
2013-06-02 04:42:00,67.0,37.0,-100.00,SSE,160,5.0,8.0,33,0.00,,,0.00,0.000000,,2013-06-02 11:42:00,
2013-06-02 04:52:00,67.0,37.0,-100.00,SSE,160,5.0,8.0,33,0.00,,,0.00,0.000000,,2013-06-02 11:52:00,
2013-06-02 05:01:00,67.0,37.0,-100.00,SSE,160,5.0,8.0,33,0.00,,,0.00,0.000000,,2013-06-02 12:01:00,
2013-06-02 05:11:00,67.0,37.0,-100.00,SSE,160,5.0,8.0,33,0.00,,,0.00,0.000000,,2013-06-02 12:11:00,
2013-06-02 05:32:00,67.0,34.0,-100.00,SSE,154,6.0,8.0,29,0.00,,,0.00,0.000000,,2013-06-02 12:32:00,
2013-06-02 05:42:00,67.0,34.0,-100.00,SSE,154,6.0,8.0,29,0.00,,,0.00,0.000000,,2013-06-02 12:42:00,
2013-06-02 05:52:00,67.0,34.0,-100.00,SSE,154,6.0,8.0,29,0.00,,,0.00,0.000000,,2013-06-02 12:52:00,
2013-06-02 06:01:00,67.0,34.0,-100.00,SSE,154,6.0,8.0,29,0.00,,,0.00,0.000000,,2013-06-02 13:01:00,
2013-06-02 06:11:00,67.0,34.0,-100.00,SSE,154,6.0,8.0,29,0.00,,,0.00,0.000000,,2013-06-02 13:11:00,
2013-06-02 06:42:00,65.0,30.0,-100.00,SSE,154,5.0,8.0,27,0.00,,,0.00,11.000000,,2013-06-02 13:42:00,
2013-06-02 06:52:00,65.0,30.0,-100.00,SSE,154,5.0,8.0,27,0.00,,,0.00,11.000000,,2013-06-02 13:52:00,
2013-06-02 07:01:00,65.0,30.0,-100.00,SSE,154,5.0,8.0,27,0.00,,,0.00,11.000000,,2013-06-02 14:01:00,
2013-06-02 07:11:00,65.0,30.0,-100.00,SSE,154,5.0,8.0,27,0.00,,,0.00,11.000000,,2013-06-02 14:11:00,
2013-06-02 07:32:00,69.0,33.0,-100.00,SSE,153,4.0,6.0,26,0.00,,,0.00,100.000000,,2013-06-02 14:32:00,
2013-06-02 07:42:00,69.0,33.0,-100.00,SSE,153,4.0,6.0,26,0.00,,,0.00,100.000000,,2013-06-02 14:42:00,
2013-06-02 07:52:00,69.0,33.0,-100.00,SSE,153,4.0,6.0,26,0.00,,,0.00,100.000000,,2013-06-02 14:52:00,
2013-06-02 08:01:00,69.0,33.0,-100.00,SSE,153,4.0,6.0,26,0.00,,,0.00,100.000000,,2013-06-02 15:01:00,
2013-06-02 08:11:00,69.0,33.0,-100.00,SSE,153,4.0,6.0,26,0.00,,,0.00,100.000000,,2013-06-02 15:11:00,
2013-06-02 08:33:00,74.0,35.0,-100.00,North,356,0.0,4.0,24,0.00,,,0.00,283.000000,,2013-06-02 15:33:00,
2013-06-02 08:43:00,74.0,35.0,-100.00,North,356,0.0,4.0,24,0.00,,,0.00,283.000000,,2013-06-02 15:43:00,
2013-06-02 08:53:00,74.0,35.0,-100.00,North,356,0.0,4.0,24,0.00,,,0.00,283.000000,,2013-06-02 15:53:00,
2013-06-02 09:03:00,74.0,35.0,-100.00,North,356,0.0,4.0,24,0.00,,,0.00,283.000000,,2013-06-02 16:03:00,
2013-06-02 09:13:00,74.0,35.0,-100.00,North,356,0.0,4.0,24,0.00,,,0.00,283.000000,,2013-06-02 16:13:00,
2013-06-02 09:33:00,77.0,36.0,-100.00,NNW,336,3.0,6.0,23,0.00,,,0.00,505.000000,,2013-06-02 16:33:00,
2013-06-02 09:42:00,77.0,36.0,-100.00,NNW,336,3.0,6.0,23,0.00,,,0.00,505.000000,,2013-06-02 16:42:00,
2013-06-02 09:52:00,77.0,36.0,-100.00,NNW,336,3.0,6.0,23,0.00,,,0.00,505.000000,,2013-06-02 16:52:00,
2013-06-02 10:02:00,77.0,36.0,-100.00,NNW,336,3.0,6.0,23,0.00,,,0.00,505.000000,,2013-06-02 17:02:00,
2013-06-02 10:12:00,77.0,36.0,-100.00,NNW,336,3.0,6.0,23,0.00,,,0.00,505.000000,,2013-06-02 17:12:00,
2013-06-02 10:32:00,83.0,35.0,-100.00,South,177,3.0,6.0,18,0.00,,,0.00,678.000000,,2013-06-02 17:32:00,
2013-06-02 10:42:00,83.0,35.0,-100.00,South,177,3.0,6.0,18,0.00,,,0.00,678.000000,,2013-06-02 17:42:00,
2013-06-02 10:52:00,83.0,35.0,-100.00,South,177,3.0,6.0,18,0.00,,,0.00,678.000000,,2013-06-02 17:52:00,
2013-06-02 11:01:00,83.0,35.0,-100.00,South,177,3.0,6.0,18,0.00,,,0.00,678.000000,,2013-06-02 18:01:00,
2013-06-02 11:11:00,83.0,35.0,-100.00,South,177,3.0,6.0,18,0.00,,,0.00,678.000000,,2013-06-02 18:11:00,
2013-06-02 11:32:00,87.0,34.0,-100.00,WNW,298,3.0,8.0,15,0.00,,,0.00,748.000000,,2013-06-02 18:32:00,
2013-06-02 11:42:00,87.0,34.0,-100.00,WNW,298,3.0,8.0,15,0.00,,,0.00,748.000000,,2013-06-02 18:42:00,
2013-06-02 11:52:00,87.0,34.0,-100.00,WNW,298,3.0,8.0,15,0.00,,,0.00,748.000000,,2013-06-02 18:52:00,
2013-06-02 12:01:00,87.0,34.0,-100.00,WNW,298,3.0,8.0,15,0.00,,,0.00,748.000000,,2013-06-02 19:01:00,
2013-06-02 12:11:00,87.0,34.0,-100.00,WNW,298,3.0,8.0,15,0.00,,,0.00,748.000000,,2013-06-02 19:11:00,
2013-06-02 12:32:00,93.0,35.0,-100.00,NNW,347,3.0,9.0,13,0.00,,,0.00,829.000000,,2013-06-02 19:32:00,
2013-06-02 13:02:00,93.0,35.0,-100.00,NNW,347,3.0,9.0,13,0.00,,,0.00,829.000000,,2013-06-02 20:02:00,
2013-06-02 13:11:00,93.0,35.0,-100.00,NNW,347,3.0,9.0,13,0.00,,,0.00,829.000000,,2013-06-02 20:11:00,
2013-06-02 13:32:00,94.0,31.0,-100.00,WSW,257,5.0,16.0,11,0.00,,,0.00,930.000000,,2013-06-02 20:32:00,
2013-06-02 14:01:00,94.0,31.0,-100.00,WSW,257,5.0,16.0,11,0.00,,,0.00,930.000000,,2013-06-02 21:01:00,
2013-06-02 14:33:00,94.0,36.0,-100.00,WSW,252,9.0,22.0,13,0.00,,,0.00,834.000000,,2013-06-02 21:33:00,
2013-06-02 14:42:00,94.0,36.0,-100.00,WSW,252,9.0,22.0,13,0.00,,,0.00,834.000000,,2013-06-02 21:42:00,
2013-06-02 14:53:00,94.0,36.0,-100.00,WSW,252,9.0,22.0,13,0.00,,,0.00,834.000000,,2013-06-02 21:53:00,
2013-06-02 15:03:00,94.0,36.0,-100.00,WSW,252,9.0,22.0,13,0.00,,,0.00,834.000000,,2013-06-02 22:03:00,
2013-06-02 15:12:00,94.0,36.0,-100.00,WSW,252,9.0,22.0,13,0.00,,,0.00,834.000000,,2013-06-02 22:12:00,
2013-06-02 15:33:00,93.0,35.0,-100.00,WSW,250,7.0,26.0,13,0.00,,,0.00,817.000000,,2013-06-02 22:33:00,
2013-06-02 15:42:00,93.0,35.0,-100.00,WSW,250,7.0,26.0,13,0.00,,,0.00,817.000000,,2013-06-02 22:42:00,
2013-06-02 15:52:00,93.0,35.0,-100.00,WSW,250,7.0,26.0,13,0.00,,,0.00,817.000000,,2013-06-02 22:52:00,
2013-06-02 16:02:00,93.0,35.0,-100.00,WSW,250,7.0,26.0,13,0.00,,,0.00,817.000000,,2013-06-02 23:02:00,
2013-06-02 16:12:00,93.0,35.0,-100.00,WSW,250,7.0,26.0,13,0.00,,,0.00,817.000000,,2013-06-02 23:12:00,
2013-06-02 16:32:00,93.0,35.0,-100.00,SW,215,7.0,25.0,13,0.00,,,0.00,717.000000,,2013-06-02 23:32:00,
2013-06-02 16:42:00,93.0,35.0,-100.00,SW,215,7.0,25.0,13,0.00,,,0.00,717.000000,,2013-06-02 23:42:00,
2013-06-02 16:52:00,93.0,35.0,-100.00,SW,215,7.0,25.0,13,0.00,,,0.00,717.000000,,2013-06-02 23:52:00,
2013-06-02 17:01:00,93.0,35.0,-100.00,SW,215,7.0,25.0,13,0.00,,,0.00,717.000000,,2013-06-03 00:01:00,
2013-06-02 17:11:00,93.0,35.0,-100.00,SW,215,7.0,25.0,13,0.00,,,0.00,717.000000,,2013-06-03 00:11:00,
2013-06-02 18:32:00,90.0,34.0,-100.00,SW,231,6.0,21.0,14,-99.99,,,0.00,284.000000,,2013-06-03 01:32:00,
2013-06-02 18:42:00,90.0,34.0,-100.00,SW,231,6.0,21.0,14,-99.99,,,0.00,284.000000,,2013-06-03 01:42:00,
2013-06-02 18:52:00,90.0,34.0,-100.00,SW,231,6.0,21.0,14,-99.99,,,0.00,284.000000,,2013-06-03 01:52:00,
2013-06-02 19:02:00,90.0,34.0,-100.00,SW,231,6.0,21.0,14,-99.99,,,0.00,284.000000,,2013-06-03 02:02:00,
2013-06-02 19:12:00,90.0,34.0,-100.00,SW,231,6.0,21.0,14,-99.99,,,0.00,284.000000,,2013-06-03 02:12:00,
2013-06-02 19:32:00,86.0,35.0,-100.00,SW,228,5.0,15.0,16,0.00,,,0.00,143.000000,,2013-06-03 02:32:00,
2013-06-02 19:42:00,86.0,35.0,-100.00,SW,228,5.0,15.0,16,0.00,,,0.00,143.000000,,2013-06-03 02:42:00,
2013-06-02 19:52:00,86.0,35.0,-100.00,SW,228,5.0,15.0,16,0.00,,,0.00,143.000000,,2013-06-03 02:52:00,
2013-06-02 20:02:00,86.0,35.0,-100.00,SW,228,5.0,15.0,16,0.00,,,0.00,143.000000,,2013-06-03 03:02:00,
2013-06-02 20:12:00,86.0,35.0,-100.00,SW,228,5.0,15.0,16,0.00,,,0.00,143.000000,,2013-06-03 03:12:00,
2013-06-02 20:33:00,82.0,37.0,-100.00,West,273,6.0,18.0,20,0.00,,,0.00,25.000000,,2013-06-03 03:33:00,
2013-06-02 20:43:00,82.0,37.0,-100.00,West,273,6.0,18.0,20,0.00,,,0.00,25.000000,,2013-06-03 03:43:00,
2013-06-02 20:53:00,82.0,37.0,-100.00,West,273,6.0,18.0,20,0.00,,,0.00,25.000000,,2013-06-03 03:53:00,
2013-06-02 21:02:00,82.0,37.0,-100.00,West,273,6.0,18.0,20,0.00,,,0.00,25.000000,,2013-06-03 04:02:00,
2013-06-02 21:12:00,82.0,37.0,-100.00,West,273,6.0,18.0,20,0.00,,,0.00,25.000000,,2013-06-03 04:12:00,
2013-06-02 21:33:00,80.0,41.0,-100.00,WSW,244,2.0,16.0,25,0.00,,,0.00,0.000000,,2013-06-03 04:33:00,
2013-06-02 21:42:00,80.0,41.0,-100.00,WSW,244,2.0,16.0,25,0.00,,,0.00,0.000000,,2013-06-03 04:42:00,
2013-06-02 21:53:00,80.0,41.0,-100.00,WSW,244,2.0,16.0,25,0.00,,,0.00,0.000000,,2013-06-03 04:53:00,
2013-06-02 22:02:00,80.0,41.0,-100.00,WSW,244,2.0,16.0,25,0.00,,,0.00,0.000000,,2013-06-03 05:02:00,
2013-06-02 22:12:00,80.0,41.0,-100.00,WSW,244,2.0,16.0,25,0.00,,,0.00,0.000000,,2013-06-03 05:12:00,
2013-06-02 22:32:00,79.0,39.0,-100.00,SSW,197,7.0,12.0,24,0.00,,,0.00,0.000000,,2013-06-03 05:32:00,
2013-06-02 22:43:00,79.0,39.0,-100.00,SSW,197,7.0,12.0,24,0.00,,,0.00,0.000000,,2013-06-03 05:43:00,
2013-06-02 22:52:00,79.0,39.0,-100.00,SSW,197,7.0,12.0,24,0.00,,,0.00,0.000000,,2013-06-03 05:52:00,
2013-06-02 23:02:00,79.0,39.0,-100.00,SSW,197,7.0,12.0,24,0.00,,,0.00,0.000000,,2013-06-03 06:02:00,
2013-06-02 23:12:00,79.0,39.0,-100.00,SSW,197,7.0,12.0,24,0.00,,,0.00,0.000000,,2013-06-03 06:12:00,
2013-06-02 23:32:00,78.0,37.0,-100.00,SSW,204,7.0,14.0,23,0.00,,,0.00,0.000000,,2013-06-03 06:32:00,
2013-06-02 23:42:00,78.0,37.0,-100.00,SSW,204,7.0,14.0,23,0.00,,,0.00,0.000000,,2013-06-03 06:42:00,
2013-06-02 23:52:00,78.0,37.0,-100.00,SSW,204,7.0,14.0,23,0.00,,,0.00,0.000000,,2013-06-03 06:52:00,